Terminal Aerodrome Forecast
Issued by NWS Mt. Holly, NJ

Home | Current Version | Previous Version | Text Only | Print | Product List | Glossary On
Versions: 1 2 3 4 5 6 7 8 9 10 11 12 13 14 15 16 17 18 19 20 21 22
182
FTUS41 KPHI 220928 AAC
TAFILG
TAF AMD
KILG 220928Z 2209/2306 19003KT P6SM FEW005 BKN250
      TEMPO 2209/2213 5SM BR BKN005
     FM221300 20005KT P6SM FEW035 BKN250
     FM221800 21011KT P6SM SCT050
     FM222300 21008KT P6SM BKN060=

USA.gov is the U.S. government's official web portal to all federal, state and local government web resources and services.